| time (UTC) | temp C | wind direction | speed KPH | gust KPH | rain 1hr cm | rain 24hr cm | rain mn cm | humidity % | barometer mb |
| 20260505112534 | 10 | 0.0 | 0.0 | 0.00 | 0.10 | 0.10 | 84 | 1012.7 | |
| 20260505112034 | 10 | 0.0 | 0.0 | 0.00 | 0.10 | 0.10 | 83 | 1012.7 | |
| 20260505111535 | 10 | 0.0 | 0.0 | 0.00 | 0.10 | 0.10 | 84 | 1012.4 | |
| 20260505111033 | 10 | 0.0 | 0.0 | 0.00 | 0.10 | 0.10 | 84 | 1012.4 | |
| 20260505110533 | 10 | 0.0 | 0.0 | 0.00 | 0.10 | 0.10 | 84 | 1012.5 | |
| 20260505102035 | 10 | 0.0 | 1.6 | 0.03 | 0.10 | 0.10 | 82 | 1012.1 | |
| 20260505101532 | 11 | 0.0 | 1.6 | 0.05 | 0.10 | 0.10 | 84 | 1012.1 | |
| 20260505101054 | 10 | 0.0 | 1.6 | 0.08 | 0.10 | 0.10 | 83 | 1012.4 | |
| 20260505100555 | 10 | 0.0 | 1.6 | 0.08 | 0.10 | 0.10 | 83 | 1012.4 | |
| 20260505100034 | 10 | 0.0 | 0.0 | 0.10 | 0.10 | 0.10 | 84 | 1012.4 | |
| 20260505095533 | 10 | 0.0 | 0.0 | 0.10 | 0.10 | 0.10 | 84 | 1012.8 | |
| 20260505095035 | 10 | 0.0 | 0.0 | 0.10 | 0.10 | 0.10 | 83 | 1012.5 | |
| 20260505094533 | 10 | 0.0 | 0.0 | 0.10 | 0.10 | 0.10 | 82 | 1012.6 | |
| 20260505094035 | 11 | 0.0 | 0.0 | 0.10 | 0.10 | 0.10 | 81 | 1012.9 | |
| 20260505093535 | 11 | 0.0 | 0.0 | 0.10 | 0.10 | 0.10 | 81 | 1012.9 | |
| 20260505093053 | 11 | 0.0 | 1.6 | 0.10 | 0.10 | 0.10 | 80 | 1013.0 | |
| 20260505092614 | 11 | 0.0 | 1.6 | 0.08 | 0.08 | 0.08 | 78 | 1013.2 | |
| 20260505092033 | 11 | 0.0 | 0.0 | 0.08 | 0.08 | 0.08 | 77 | 1013.3 | |
| 20260505091533 | 12 | 0.0 | 0.0 | 0.05 | 0.05 | 0.05 | 74 | 1013.5 | |
| 20260505091035 | 12 | 0.0 | 0.0 | 0.03 | 0.03 | 0.03 | 70 | 1013.5 | |
| 20260505090534 | 12 | 0.0 | 1.6 | 0.03 | 0.03 | 0.00 | 66 | 1013.8 | |
| 20260505090032 | 13 | 0.0 | 1.6 | 0.00 | 0.00 | 0.00 | 63 | 1014.1 | |
| 20260505085535 | 13 | 0.0 | 1.6 | 0.00 | 0.00 | 0.00 | 59 | 1014.1 | |
| 20260505085033 | 13 | 0.0 | 1.6 | 0.00 | 0.00 | 0.00 | 56 | 1014.0 | |
| 20260505084534 | 13 | 248 | 1.6 | 6.4 | 0.00 | 0.00 | 0.00 | 53 | 1014.2 |
| 20260505084031 | 13 | 0.0 | 1.6 | 0.00 | 0.00 | 0.00 | 56 | 1014.3 | |
| 20260505083535 | 13 | 0.0 | 0.0 | 0.00 | 0.00 | 0.00 | 55 | 1014.2 | |
| 20260505083035 | 13 | 0.0 | 1.6 | 0.00 | 0.00 | 0.00 | 55 | 1014.2 | |
| 20260505082533 | 13 | 315 | 1.6 | 4.8 | 0.00 | 0.00 | 0.00 | 56 | 1014.3 |
| 20260505082033 | 13 | 0.0 | 4.8 | 0.00 | 0.00 | 0.00 | 56 | 1014.3 | |
| 20260505081533 | 13 | 0.0 | 3.2 | 0.00 | 0.00 | 0.00 | 56 | 1014.3 | |
| 20260505081032 | 14 | 315 | 1.6 | 4.8 | 0.00 | 0.00 | 0.00 | 55 | 1014.2 |
| 20260505080535 | 14 | 0.0 | 3.2 | 0.00 | 0.00 | 0.00 | 53 | 1014.0 | |
| 20260505080033 | 14 | 0.0 | 1.6 | 0.00 | 0.00 | 0.00 | 50 | 1014.0 | |
| 20260505075533 | 14 | 0.0 | 4.8 | 0.00 | 0.00 | 0.00 | 49 | 1014.0 | |
| 20260505075032 | 14 | 315 | 3.2 | 9.7 | 0.00 | 0.00 | 0.00 | 51 | 1014.0 |
| 20260505074533 | 14 | 338 | 1.6 | 9.7 | 0.00 | 0.00 | 0.00 | 53 | 1014.0 |
| 20260505074032 | 15 | 315 | 4.8 | 16.1 | 0.00 | 0.00 | 0.00 | 50 | 1013.9 |
| 20260505073535 | 15 | 315 | 3.2 | 11.3 | 0.00 | 0.00 | 0.00 | 50 | 1014.2 |
| 20260505073032 | 15 | 45 | 1.6 | 14.5 | 0.00 | 0.00 | 0.00 | 48 | 1014.4 |
| 20260505072533 | 15 | 23 | 3.2 | 9.7 | 0.00 | 0.00 | 0.00 | 49 | 1014.1 |
| 20260505072033 | 14 | 45 | 1.6 | 11.3 | 0.00 | 0.00 | 0.00 | 51 | 1014.0 |
| 20260505071533 | 13 | 45 | 3.2 | 8.0 | 0.00 | 0.00 | 0.00 | 53 | 1013.7 |
| 20260505071032 | 13 | 45 | 1.6 | 6.4 | 0.00 | 0.00 | 0.00 | 57 | 1013.8 |
| 20260505070533 | 13 | 45 | 3.2 | 9.7 | 0.00 | 0.00 | 0.00 | 59 | 1013.8 |
| 20260505070035 | 13 | 45 | 3.2 | 9.7 | 0.00 | 0.00 | 0.00 | 60 | 1013.8 |
| 20260505065531 | 13 | 45 | 3.2 | 17.7 | 0.00 | 0.00 | 0.00 | 60 | 1013.6 |
| 20260505065035 | 13 | 45 | 4.8 | 17.7 | 0.00 | 0.00 | 0.00 | 60 | 1013.6 |
| 20260505064533 | 13 | 68 | 1.6 | 8.0 | 0.00 | 0.00 | 0.00 | 61 | 1013.7 |
| 20260505064056 | 13 | 45 | 4.8 | 16.1 | 0.00 | 0.00 | 0.00 | 60 | 1013.8 |
| 20260505063533 | 13 | 45 | 4.8 | 16.1 | 0.00 | 0.00 | 0.00 | 61 | 1013.8 |
| 20260505063033 | 13 | 45 | 1.6 | 8.0 | 0.00 | 0.00 | 0.00 | 63 | 1013.8 |
| 20260505062535 | 13 | 45 | 3.2 | 17.7 | 0.00 | 0.00 | 0.00 | 64 | 1013.9 |
| 20260505062054 | 13 | 45 | 4.8 | 17.7 | 0.00 | 0.00 | 0.00 | 63 | 1013.9 |
| 20260505061533 | 13 | 68 | 4.8 | 19.3 | 0.00 | 0.00 | 0.00 | 63 | 1013.9 |
| 20260505061033 | 13 | 45 | 4.8 | 14.5 | 0.00 | 0.00 | 0.00 | 63 | 1014.3 |
| 20260505060535 | 13 | 45 | 4.8 | 19.3 | 0.00 | 0.00 | 0.00 | 63 | 1014.2 |
| 20260505060034 | 13 | 45 | 3.2 | 11.3 | 0.00 | 0.00 | 0.00 | 61 | 1014.2 |
| 20260505055533 | 13 | 45 | 3.2 | 9.7 | 0.00 | 0.00 | 0.00 | 60 | 1013.9 |
| 20260505055035 | 13 | 45 | 4.8 | 14.5 | 0.00 | 0.00 | 0.00 | 59 | 1013.9 |
| 20260505054533 | 13 | 45 | 4.8 | 22.5 | 0.00 | 0.00 | 0.00 | 59 | 1013.9 |
| 20260505054035 | 13 | 45 | 4.8 | 12.9 | 0.00 | 0.00 | 0.00 | 59 | 1013.8 |
| 20260505053535 | 13 | 45 | 4.8 | 20.9 | 0.00 | 0.00 | 0.00 | 58 | 1014.0 |
| 20260505053033 | 14 | 45 | 4.8 | 17.7 | 0.00 | 0.00 | 0.00 | 57 | 1014.3 |
| 20260505052532 | 14 | 45 | 3.2 | 16.1 | 0.00 | 0.00 | 0.00 | 55 | 1014.2 |
| 20260505052033 | 14 | 45 | 6.4 | 19.3 | 0.00 | 0.00 | 0.00 | 54 | 1013.8 |
| 20260505051532 | 14 | 315 | 8.0 | 20.9 | 0.00 | 0.00 | 0.00 | 54 | 1013.9 |
| 20260505051034 | 14 | 45 | 6.4 | 14.5 | 0.00 | 0.00 | 0.00 | 54 | 1013.9 |
| 20260505050533 | 14 | 45 | 6.4 | 19.3 | 0.00 | 0.00 | 0.00 | 54 | 1013.5 |
| 20260505041533 | 16 | 45 | 3.2 | 9.7 | 0.00 | 0.00 | 0.00 | 47 | 1013.0 |
| 20260505041032 | 16 | 45 | 4.8 | 17.7 | 0.00 | 0.00 | 0.00 | 46 | 1013.1 |
| 20260505040613 | 16 | 45 | 4.8 | 14.5 | 0.00 | 0.00 | 0.00 | 46 | 1013.0 |
| 20260505040034 | 16 | 45 | 3.2 | 17.7 | 0.00 | 0.00 | 0.00 | 45 | 1013.0 |
| 20260505035534 | 16 | 45 | 4.8 | 17.7 | 0.00 | 0.00 | 0.00 | 46 | 1013.0 |
| 20260505035054 | 16 | 45 | 3.2 | 11.3 | 0.00 | 0.00 | 0.00 | 46 | 1013.0 |
| 20260505034533 | 17 | 45 | 4.8 | 20.9 | 0.00 | 0.00 | 0.00 | 44 | 1013.0 |
| 20260505034032 | 17 | 338 | 4.8 | 14.5 | 0.00 | 0.00 | 0.00 | 38 | 1012.8 |
| 20260505033533 | 17 | 45 | 3.2 | 11.3 | 0.00 | 0.00 | 0.00 | 38 | 1012.7 |
| 20260505033054 | 17 | 45 | 1.6 | 9.7 | 0.00 | 0.00 | 0.00 | 38 | 1012.7 |
| 20260505032534 | 17 | 45 | 1.6 | 12.9 | 0.00 | 0.00 | 0.00 | 39 | 1012.6 |
| 20260505032031 | 17 | 0.0 | 1.6 | 0.00 | 0.00 | 0.00 | 39 | 1012.6 | |
| 20260505031534 | 17 | 0.0 | 3.2 | 0.00 | 0.00 | 0.00 | 39 | 1012.9 | |
| 20260505031033 | 17 | 0.0 | 1.6 | 0.00 | 0.00 | 0.00 | 39 | 1012.8 | |
| 20260505030534 | 18 | 0.0 | 1.6 | 0.00 | 0.00 | 0.00 | 38 | 1012.8 | |
| 20260505030032 | 18 | 0.0 | 1.6 | 0.00 | 0.00 | 0.00 | 38 | 1012.8 | |
| 20260505025534 | 18 | 0.0 | 3.2 | 0.00 | 0.00 | 0.00 | 37 | 1012.4 | |
| 20260505025033 | 18 | 0.0 | 3.2 | 0.00 | 0.00 | 0.00 | 37 | 1012.5 | |
| 20260505024535 | 18 | 0.0 | 3.2 | 0.00 | 0.00 | 0.00 | 37 | 1012.1 | |
| 20260505024033 | 18 | 0.0 | 6.4 | 0.00 | 0.00 | 0.00 | 37 | 1012.1 | |
| 20260505023536 | 18 | 0.0 | 4.8 | 0.00 | 0.00 | 0.00 | 36 | 1012.0 | |
| 20260505023035 | 18 | 45 | 1.6 | 8.0 | 0.00 | 0.00 | 0.00 | 35 | 1012.0 |
| 20260505022533 | 18 | 0.0 | 1.6 | 0.00 | 0.00 | 0.00 | 35 | 1011.9 | |
| 20260505022033 | 18 | 0.0 | 3.2 | 0.00 | 0.00 | 0.00 | 34 | 1012.0 | |
| 20260505021533 | 18 | 0.0 | 1.6 | 0.00 | 0.00 | 0.00 | 35 | 1011.7 | |
| 20260505021033 | 18 | 0.0 | 3.2 | 0.00 | 0.00 | 0.00 | 35 | 1011.3 | |
| 20260505020533 | 19 | 0.0 | 4.8 | 0.00 | 0.00 | 0.00 | 34 | 1011.3 | |
| 20260505020033 | 19 | 0.0 | 3.2 | 0.00 | 0.00 | 0.00 | 34 | 1011.3 | |
| 20260505015533 | 19 | 315 | 1.6 | 6.4 | 0.00 | 0.00 | 0.00 | 34 | 1011.4 |
| 20260505015033 | 19 | 315 | 1.6 | 8.0 | 0.00 | 0.00 | 0.00 | 34 | 1011.1 |
| 20260505014556 | 20 | 0.0 | 3.2 | 0.00 | 0.00 | 0.00 | 33 | 1011.0 | |
| 20260505014033 | 20 | 0.0 | 3.2 | 0.00 | 0.00 | 0.00 | 33 | 1011.0 | |
| 20260505013535 | 20 | 0.0 | 6.4 | 0.00 | 0.00 | 0.00 | 33 | 1010.7 | |
| 20260505013033 | 20 | 0.0 | 4.8 | 0.00 | 0.00 | 0.00 | 32 | 1010.7 | |
| 20260505012533 | 20 | 68 | 1.6 | 8.0 | 0.00 | 0.00 | 0.00 | 32 | 1010.7 |
| 20260505012053 | 20 | 0.0 | 4.8 | 0.00 | 0.00 | 0.00 | 30 | 1010.8 | |
| 20260505011533 | 20 | 338 | 1.6 | 6.4 | 0.00 | 0.00 | 0.00 | 30 | 1010.8 |
| 20260505011033 | 20 | 315 | 3.2 | 8.0 | 0.00 | 0.00 | 0.00 | 30 | 1011.1 |
| 20260505010535 | 20 | 0.0 | 8.0 | 0.00 | 0.00 | 0.00 | 30 | 1011.2 | |
| 20260505010054 | 20 | 0.0 | 3.2 | 0.00 | 0.00 | 0.00 | 30 | 1011.2 | |
| 20260505005532 | 20 | 338 | 1.6 | 4.8 | 0.00 | 0.00 | 0.00 | 30 | 1011.2 |
| 20260505005033 | 20 | 338 | 1.6 | 6.4 | 0.00 | 0.00 | 0.00 | 29 | 1011.1 |
| 20260505004535 | 21 | 338 | 1.6 | 4.8 | 0.00 | 0.00 | 0.00 | 30 | 1011.5 |
| 20260505004033 | 21 | 0.0 | 4.8 | 0.00 | 0.00 | 0.00 | 30 | 1011.5 | |
| 20260505003533 | 21 | 248 | 1.6 | 6.4 | 0.00 | 0.00 | 0.00 | 29 | 1011.4 |
| 20260505003034 | 21 | 203 | 1.6 | 8.0 | 0.00 | 0.00 | 0.00 | 29 | 1011.2 |
| 20260505002535 | 21 | 203 | 1.6 | 8.0 | 0.00 | 0.00 | 0.00 | 29 | 1011.2 |
| 20260505002032 | 20 | 203 | 3.2 | 9.7 | 0.00 | 0.00 | 0.00 | 30 | 1011.4 |
| 20260505001553 | 21 | 225 | 4.8 | 12.9 | 0.00 | 0.00 | 0.00 | 31 | 1011.7 |
| 20260505001033 | 21 | 248 | 1.6 | 11.3 | 0.00 | 0.00 | 0.00 | 30 | 1011.7 |
| 20260505000534 | 21 | 225 | 3.2 | 8.0 | 0.00 | 0.00 | 0.00 | 31 | 1011.8 |
| 20260505000035 | 20 | 225 | 3.2 | 17.7 | 0.00 | 0.00 | 0.00 | 32 | 1011.8 |
| 20260504235531 | 20 | 248 | 3.2 | 16.1 | 0.00 | 0.00 | 0.00 | 31 | 1011.9 |
| 20260504235034 | 20 | 248 | 1.6 | 12.9 | 0.00 | 0.00 | 0.00 | 32 | 1012.2 |
| 20260504234533 | 20 | 225 | 4.8 | 19.3 | 0.00 | 0.00 | 0.00 | 33 | 1012.3 |
| 20260504234033 | 20 | 248 | 4.8 | 17.7 | 0.00 | 0.00 | 0.00 | 32 | 1012.3 |
| 20260504233534 | 20 | 225 | 4.8 | 17.7 | 0.00 | 0.00 | 0.00 | 32 | 1012.6 |
| 20260504233033 | 20 | 225 | 1.6 | 16.1 | 0.00 | 0.00 | 0.00 | 33 | 1012.5 |
| 20260504232533 | 20 | 270 | 3.2 | 9.7 | 0.00 | 0.00 | 0.00 | 32 | 1012.8 |
| 20260504232033 | 20 | 315 | 1.6 | 11.3 | 0.00 | 0.00 | 0.00 | 31 | 1012.8 |
| 20260504231533 | 20 | 225 | 1.6 | 11.3 | 0.00 | 0.00 | 0.00 | 32 | 1012.5 |
| 20260504231035 | 20 | 0.0 | 1.6 | 0.00 | 0.00 | 0.00 | 33 | 1012.5 | |
| 20260504230533 | 20 | 0.0 | 1.6 | 0.00 | 0.00 | 0.00 | 33 | 1012.9 | |
| 20260504230032 | 20 | 0.0 | 3.2 | 0.00 | 0.00 | 0.00 | 33 | 1013.0 | |
| 20260504225534 | 20 | 0.0 | 3.2 | 0.00 | 0.00 | 0.00 | 35 | 1012.8 | |
| 20260504225033 | 20 | 0.0 | 3.2 | 0.00 | 0.00 | 0.00 | 35 | 1012.9 | |
| 20260504224615 | 20 | 248 | 1.6 | 8.0 | 0.00 | 0.00 | 0.00 | 34 | 1013.0 |
| 20260504224054 | 20 | 315 | 1.6 | 4.8 | 0.00 | 0.00 | 0.00 | 36 | 1013.0 |
| 20260504223534 | 18 | 315 | 1.6 | 6.4 | 0.00 | 0.00 | 0.00 | 37 | 1013.1 |
| 20260504223034 | 18 | 203 | 1.6 | 4.8 | 0.00 | 0.00 | 0.00 | 38 | 1013.4 |
| 20260504222533 | 18 | 225 | 1.6 | 6.4 | 0.00 | 0.00 | 0.00 | 37 | 1013.0 |
| 20260504222035 | 18 | 203 | 3.2 | 12.9 | 0.00 | 0.00 | 0.00 | 36 | 1013.3 |
| 20260504221535 | 18 | 315 | 6.4 | 17.7 | 0.00 | 0.00 | 0.00 | 36 | 1013.3 |
| 20260504221032 | 19 | 315 | 6.4 | 19.3 | 0.00 | 0.00 | 0.00 | 35 | 1013.6 |
| 20260504220533 | 20 | 315 | 4.8 | 17.7 | 0.00 | 0.00 | 0.00 | 33 | 1013.5 |
| 20260504220032 | 20 | 315 | 6.4 | 25.7 | 0.00 | 0.00 | 0.00 | 32 | 1013.6 |
| 20260504215534 | 20 | 315 | 4.8 | 25.7 | 0.00 | 0.00 | 0.00 | 32 | 1013.8 |
| 20260504215032 | 20 | 45 | 1.6 | 9.7 | 0.00 | 0.00 | 0.00 | 31 | 1013.5 |
| 20260504214554 | 20 | 45 | 3.2 | 14.5 | 0.00 | 0.00 | 0.00 | 32 | 1013.5 |
| 20260504214033 | 20 | 315 | 1.6 | 8.0 | 0.00 | 0.00 | 0.00 | 32 | 1013.8 |
| 20260504213553 | 20 | 45 | 3.2 | 12.9 | 0.00 | 0.00 | 0.00 | 29 | 1013.7 |
| 20260504213052 | 20 | 315 | 3.2 | 9.7 | 0.00 | 0.00 | 0.00 | 28 | 1013.6 |
| 20260504212534 | 21 | 315 | 1.6 | 11.3 | 0.00 | 0.00 | 0.00 | 26 | 1013.4 |
| 20260504212032 | 21 | 315 | 3.2 | 9.7 | 0.00 | 0.00 | 0.00 | 27 | 1013.3 |
| 20260504211533 | 21 | 315 | 1.6 | 8.0 | 0.00 | 0.00 | 0.00 | 26 | 1013.3 |
| 20260504211053 | 21 | 315 | 1.6 | 8.0 | 0.00 | 0.00 | 0.00 | 26 | 1013.4 |
| 20260504210533 | 22 | 315 | 1.6 | 6.4 | 0.00 | 0.00 | 0.00 | 25 | 1013.1 |
| 20260504210031 | 22 | 0.0 | 4.8 | 0.00 | 0.00 | 0.00 | 25 | 1013.4 | |
| 20260504205534 | 22 | 315 | 1.6 | 6.4 | 0.00 | 0.00 | 0.00 | 25 | 1013.4 |
| 20260504205033 | 22 | 315 | 1.6 | 8.0 | 0.00 | 0.00 | 0.00 | 24 | 1013.4 |
| 20260504204535 | 22 | 315 | 3.2 | 9.7 | 0.00 | 0.00 | 0.00 | 25 | 1013.7 |
| 20260504204032 | 22 | 315 | 1.6 | 9.7 | 0.00 | 0.00 | 0.00 | 24 | 1013.7 |
| 20260504203535 | 22 | 0.0 | 4.8 | 0.00 | 0.00 | 0.00 | 25 | 1013.8 | |
| 20260504203032 | 22 | 0.0 | 3.2 | 0.00 | 0.00 | 0.00 | 25 | 1013.9 | |
| 20260504202535 | 23 | 0.0 | 3.2 | 0.00 | 0.00 | 0.00 | 24 | 1013.9 | |
| 20260504202051 | 23 | 0.0 | 3.2 | 0.00 | 0.00 | 0.00 | 24 | 1013.9 | |
| 20260504201533 | 23 | 0.0 | 4.8 | 0.00 | 0.00 | 0.00 | 25 | 1013.6 | |
| 20260504201034 | 22 | 0.0 | 6.4 | 0.00 | 0.00 | 0.00 | 24 | 1013.7 | |
| 20260504200534 | 22 | 0.0 | 1.6 | 0.00 | 0.00 | 0.00 | 25 | 1013.4 | |
| 20260504200035 | 22 | 315 | 1.6 | 6.4 | 0.00 | 0.00 | 0.00 | 26 | 1013.5 |
| 20260504195535 | 22 | 315 | 1.6 | 8.0 | 0.00 | 0.00 | 0.00 | 25 | 1013.4 |
| 20260504195035 | 22 | 0.0 | 4.8 | 0.00 | 0.00 | 0.00 | 25 | 1013.2 | |
| 20260504194533 | 23 | 0.0 | 6.4 | 0.00 | 0.00 | 0.00 | 25 | 1012.9 | |
| 20260504194033 | 22 | 203 | 1.6 | 6.4 | 0.00 | 0.00 | 0.00 | 25 | 1012.9 |
| 20260504193554 | 23 | 68 | 1.6 | 4.8 | 0.00 | 0.00 | 0.00 | 23 | 1013.3 |
| 20260504193033 | 23 | 45 | 1.6 | 6.4 | 0.00 | 0.00 | 0.00 | 24 | 1013.7 |
| 20260504192534 | 23 | 113 | 1.6 | 8.0 | 0.00 | 0.00 | 0.00 | 23 | 1013.6 |
| 20260504192031 | 23 | 90 | 1.6 | 17.7 | 0.00 | 0.00 | 0.00 | 23 | 1013.6 |
| 20260504191535 | 23 | 90 | 1.6 | 11.3 | 0.00 | 0.00 | 0.00 | 25 | 1013.7 |
| 20260504191054 | 23 | 135 | 1.6 | 4.8 | 0.00 | 0.00 | 0.00 | 23 | 1013.7 |
| 20260504190534 | 23 | 45 | 1.6 | 4.8 | 0.00 | 0.00 | 0.00 | 23 | 1014.1 |
| 20260504190034 | 23 | 45 | 1.6 | 8.0 | 0.00 | 0.00 | 0.00 | 24 | 1014.1 |
| 20260504185534 | 23 | 68 | 1.6 | 9.7 | 0.00 | 0.00 | 0.00 | 25 | 1014.2 |
| 20260504185033 | 22 | 315 | 3.2 | 11.3 | 0.00 | 0.00 | 0.00 | 25 | 1014.5 |
| 20260504184534 | 22 | 315 | 3.2 | 12.9 | 0.00 | 0.00 | 0.00 | 24 | 1014.6 |
| 20260504184032 | 22 | 68 | 1.6 | 8.0 | 0.00 | 0.00 | 0.00 | 26 | 1014.6 |
| 20260504183533 | 22 | 45 | 1.6 | 6.4 | 0.00 | 0.00 | 0.00 | 26 | 1014.4 |
| 20260504183033 | 22 | 68 | 1.6 | 9.7 | 0.00 | 0.00 | 0.00 | 26 | 1014.8 |
| 20260504182533 | 22 | 23 | 1.6 | 11.3 | 0.00 | 0.00 | 0.00 | 27 | 1015.0 |
| 20260504182033 | 22 | 23 | 3.2 | 9.7 | 0.00 | 0.00 | 0.00 | 25 | 1014.8 |
| 20260504181554 | 22 | 45 | 1.6 | 8.0 | 0.00 | 0.00 | 0.00 | 26 | 1014.9 |
| 20260504181033 | 22 | 45 | 3.2 | 11.3 | 0.00 | 0.00 | 0.00 | 24 | 1014.9 |
| 20260504180555 | 22 | 68 | 1.6 | 6.4 | 0.00 | 0.00 | 0.00 | 26 | 1014.7 |
| 20260504180034 | 22 | 45 | 3.2 | 11.3 | 0.00 | 0.00 | 0.00 | 27 | 1014.7 |
| 20260504175533 | 22 | 68 | 3.2 | 16.1 | 0.00 | 0.00 | 0.00 | 27 | 1014.5 |
| 20260504175054 | 22 | 45 | 1.6 | 9.7 | 0.00 | 0.00 | 0.00 | 28 | 1014.5 |
| 20260504174532 | 22 | 90 | 3.2 | 14.5 | 0.00 | 0.00 | 0.00 | 27 | 1014.5 |
| 20260504174035 | 22 | 68 | 3.2 | 14.5 | 0.00 | 0.00 | 0.00 | 27 | 1014.6 |
| 20260504173535 | 22 | 45 | 1.6 | 11.3 | 0.00 | 0.00 | 0.00 | 27 | 1014.8 |
| 20260504173033 | 22 | 68 | 3.2 | 14.5 | 0.00 | 0.00 | 0.00 | 27 | 1014.9 |
| 20260504172531 | 22 | 315 | 1.6 | 11.3 | 0.00 | 0.00 | 0.00 | 28 | 1015.0 |
| 20260504172033 | 22 | 315 | 1.6 | 9.7 | 0.00 | 0.00 | 0.00 | 26 | 1015.0 |
| 20260504171533 | 22 | 45 | 1.6 | 9.7 | 0.00 | 0.00 | 0.00 | 26 | 1015.1 |
| 20260504171034 | 22 | 45 | 1.6 | 4.8 | 0.00 | 0.00 | 0.00 | 28 | 1015.0 |
| 20260504170534 | 21 | 68 | 1.6 | 11.3 | 0.00 | 0.00 | 0.00 | 28 | 1015.1 |
| 20260504151034 | 20 | 0.0 | 0.0 | 0.00 | 0.00 | 0.00 | 29 | 1015.6 | |
| 20260504150555 | 19 | 0.0 | 0.0 | 0.00 | 0.00 | 0.00 | 29 | 1015.6 | |
| 20260504141033 | 15 | 0.0 | 0.0 | 0.00 | 0.00 | 0.00 | 41 | 1014.8 | |
| 20260504140534 | 14 | 0.0 | 0.0 | 0.00 | 0.00 | 0.00 | 39 | 1014.5 | |
| 20260504130533 | 11 | 0.0 | 0.0 | 0.00 | 0.00 | 0.00 | 46 | 1014.3 |